Location: Newark
(48.0000°N, 67.0000°E)
Time: 05:12:38
(UTC+00:00)

DUCHIFAT 1 - Pass Details

Date: 08 April 2020
Orbit: 586 x 604 km, 97.9° (Epoch: 27 May)

Event Time Altitude Azimuth Distance (km) Brightness Sun altitude
Rises 21:38:53 0° 5° (N) 2,838 ? -27.9°
Reaches altitude 10° 21:41:13 10° 355° (N) 1,929 ? -27.7°
Enters shadow 21:43:27 25° 330° (NNW) 1,221 ? -27.4°
